FENGYUN 1C DEB, 32205

Orbit data source: Space-Track

FENGYUN 1C DEB, 32205 is space debris in SSO originally from a launch on Mon, 10 May 1999 UTC launched from the Taiyaun Space Center, China (TSC). Fengyun 1C debris stems from the Chinese weather satellite Fengyun-1C, which was intentionally destroyed by a Chinese anti-satellite missile in 2007. This event dramatically increased the amount of space debris, with thousands of trackable fragments posing hazards to satellites and human spaceflight. The Fengyun 1C debris cloud has become a focal point in discussions about space sustainability and the need for international regulations to prevent the creation of new debris.

Loading next visibility...
Identifier
32205, 1999-025CVB
Orbit
SSO
Country
Flag of CNCN / PRC
Related business
Manufacturer
Unknown
Mission
Spacecraft
Bus & Motor
Unknown
Mass
Unknown
Launch date (UTC)
1999-05-10 (26 years ago)
Launch vehicle
Unknown
Launch site
Taiyaun Space Center, China (TSC)
Object type
Payload
Rocket body
Debris
Shape & HBR
Unknown shape, 0.1 m
Radar Cross Section
Small (<0.1 m²)

Expand to show TLE details & history
Last TLE update: 3 days ago

TLE from 3 days ago
0 FENGYUN 1C DEB
1 32205U 99025CVB 25308.77123426  .00000320  00000-0  19142-3 0  9992
2 32205  98.6793 313.7779 0011724  42.3928 136.6201 14.13872874939618
Epoch: 2025-11-04T18:30Z
TLE epoch observation values (Epoch: 2025-11-04T18:30:34.640Z)
Latitude
0.77349°
Longitude
171.99755°
Altitude
855.121 km
Speed
7.422 km/s
True Right ascension
08h 55m 34s
True Declination
0° 46' 08"
Sunlit
Object was in daylight at epoch
Visualization orbit readout
Latitude
Unknown
Longitude
Unknown
Altitude
Unknown
Speed
Unknown
Apparent Right ascension
Unknown
Apparent Declination
Unknown
Sunlit
N/A
Visualization observer readout
Local Sidereal Time
03:11:36
Azimuth
Unknown
Elevation
Unknown
Doppler factor
Unknown
Orbital elements
Apogee altitude
851.781 km
Perigee altitude
834.848 km
Semi-major axis
7,221.451 km
Eccentricity
0.00117
Inclination
98.6793°
RAAN
313.7779°
Arg. of periapsis
42.3928°
True anomaly
136.71228°
Mean anomaly
136.6201°
Eccentric anomaly
136.6662°
Mean motion
3.53677 °/min
Orbital period
101.79 mins
BSTAR
0.00019142
Loading maneuver chart data...
Computing Atmospheric mass density...

Documentation

Showing up to 5 results
|